{"data":{"norad_id":67852,"intl_designator":"2026-034C","name":"STARLINK-36276","alt_names":[],"object_type":"PAYLOAD","status":"ACTIVE","operator":null,"country":"US","launch_date":"2026-02-20","launch_site_code":"AFETR","launch_vehicle":null,"mission":null,"orbit_class":"UNKNOWN","rcs_meters":null,"size_class":null,"mass_kg":null,"dimensions":null,"purposes":["comms"],"wikipedia_slug":null,"has_3d_model":false,"image_url":null,"decayed_at":null,"tle_current":{"epoch":"2026-09-19T21:36:06.741792Z","epoch_age_seconds":118332,"freshness":"FRESH","line1":"1 67852U 26034C   26262.90007803  .00015176  00000+0  45949-3 0  9991","line2":"2 67852  53.1581  20.5250 0000360  99.0347 261.0696 15.34390919 33794","mean_motion":15.34390919,"eccentricity":3.6e-5,"inclination_deg":53.1581,"raan_deg":20.525,"arg_perigee_deg":99.0347,"mean_anomaly_deg":261.0696,"bstar":0.00045949,"rev_number":3379,"period_min":93.848313501391,"perigee_km":462.48395976564,"apogee_km":462.97650220627,"semimajor_km":6840.867230986,"source":"CELESTRAK","updated_at":"2026-09-20T09:00:43.673673Z"}}}